Winslow, AZ

10:44 AM MST on March 25, 2017 (GMT -0700)
Winslow-Lindbergh Regional

Weather History for KINW - April, 2013

Change the Weather History Date:

Wednesday, April 10, 2013

  Actual Average Record
Temperature  
Mean Temperature 46 °F 52 °F  
Max Temperature 56 °F 70 °F 85 °F (1972)
Min Temperature 35 °F 35 °F 20 °F (1929)
Degree Days  
Heating Degree Days 19 13  
Month to date heating degree days 103 137  
Since 1 July heating degree days 3954 4190  
Cooling Degree Days 0 0  
Month to date cooling degree days 0 0  
Year to date cooling degree days 0 0  
Moisture  
Dew Point 20 °F    
Average Humidity 42    
Maximum Humidity 70    
Minimum Humidity 14    
Precipitation  
Precipitation 0.00 in 0.01 in 0.27 in (1994)
Month to date precipitation 0.30 0.12  
Year to date precipitation 1.78 1.64  
Sea Level Pressure  
Sea Level Pressure 29.99 in    
Wind  
Wind Speed 11 mph (NW)    
Max Wind Speed 25 mph    
Max Gust Speed 39 mph    
Visibility 10 miles    
Events      
T = Trace of Precipitation, MM = Missing Value Source: NWS Daily Summary

Daily Weather History Graph

Daily Weather History Graph

Search for Another Location

Airport or City:

Trip Planner

Search our weather history database for the weather conditions in past years. The results will help you decide how hot, cold, wet, or windy it might be!

Date:

Astronomy

Apr. 10, 2013 Rise Set
Actual Time 5:57 AM MST 6:51 PM MST
Civil Twilight 5:31 AM MST 7:17 PM MST
Nautical Twilight 5:00 AM MST 7:48 PM MST
Astronomical Twilight 4:29 AM MST 8:19 PM MST
Moon 5:56 AM MST (4/10) 7:28 PM MST (4/10)
Length of Visible Light 13h 46m
Length of Day
12h 54m
New Moon, 0% of the Moon is Illuminated
Apr 10
New Moon
Apr 18
First Quarter
Apr 25
Full
May 2
Last Quarter
May 9
New

Hourly Weather History & Observations

Time (MST) Temp. Windchill Dew Point Humidity Pressure Visibility Wind Dir Wind Speed Gust Speed Precip Events Conditions
12:56 AM 37.0 °F 29.3 °F 26.1 °F 65% 29.89 in 10.0 mi WNW 11.5 mph - N/A   Clear
2:56 AM 39.0 °F 33.4 °F 30.0 °F 70% 29.92 in 10.0 mi WNW 8.1 mph - N/A   Overcast
3:56 AM 39.0 °F 34.0 °F 26.1 °F 60% 29.94 in 10.0 mi North 6.9 mph - N/A   Overcast
4:56 AM 37.9 °F 32.7 °F 25.0 °F 60% 29.96 in 10.0 mi North 6.9 mph - N/A   Overcast
5:56 AM 37.0 °F 33.3 °F 25.0 °F 62% 29.98 in 10.0 mi NNW 4.6 mph - N/A   Overcast
6:56 AM 36.0 °F 29.0 °F 26.1 °F 67% 30.03 in 10.0 mi WNW 9.2 mph - N/A   Overcast
7:56 AM 37.9 °F 29.6 °F 21.0 °F 51% 30.05 in 10.0 mi NW 13.8 mph - N/A   Overcast
8:56 AM 41.0 °F 32.8 °F 19.9 °F 43% 30.05 in 10.0 mi NNW 16.1 mph - N/A   Mostly Cloudy
9:56 AM 43.0 °F 36.4 °F 19.0 °F 38% 30.07 in 10.0 mi NNW 12.7 mph 19.6 mph N/A   Clear
10:56 AM 46.0 °F 39.9 °F 19.0 °F 34% 30.06 in 10.0 mi NW 13.8 mph 33.4 mph N/A   Partly Cloudy
11:56 AM 48.0 °F - 17.1 °F 29% 30.04 in 10.0 mi NW 18.4 mph 25.3 mph N/A   Clear
12:56 PM 50.0 °F - 15.1 °F 25% 30.02 in 10.0 mi NW 19.6 mph 26.5 mph N/A   Clear
1:56 PM 53.1 °F - 12.9 °F 20% 29.99 in 10.0 mi NW 17.3 mph 27.6 mph N/A   Clear
2:56 PM 54.0 °F - 12.9 °F 20% 29.95 in 10.0 mi NNW 18.4 mph 29.9 mph N/A   Clear
3:56 PM 54.0 °F - 12.0 °F 19% 29.95 in 10.0 mi WNW 15.0 mph 32.2 mph N/A   Clear
4:56 PM 55.9 °F - 10.0 °F 16% 29.94 in 10.0 mi NNW 19.6 mph 36.8 mph N/A   Clear
5:56 PM 55.0 °F - 7.0 °F 15% 29.95 in 10.0 mi NW 15.0 mph 20.7 mph N/A   Clear
6:56 PM 52.0 °F - 9.0 °F 18% 29.96 in 10.0 mi North 4.6 mph - N/A   Clear
7:56 PM 43.0 °F 41.3 °F 21.0 °F 42% 30.00 in 10.0 mi SSW 3.5 mph - N/A   Clear
8:56 PM 39.9 °F 34.5 °F 25.0 °F 55% 30.02 in 10.0 mi SW 8.1 mph - N/A   Clear
9:56 PM 37.9 °F 32.7 °F 25.0 °F 60% 30.03 in 10.0 mi SW 6.9 mph - N/A   Clear
10:56 PM 37.0 °F 32.4 °F 24.1 °F 59% 30.01 in 10.0 mi SW 5.8 mph - N/A   Clear
11:56 PM 37.9 °F - 23.0 °F 55% 30.01 in 10.0 mi Calm Calm - N/A   Clear